Location: Peyrusse-Grand
(43.6326°N, 0.2141°E)
Time: 01:39:45
(UTC+00:00)

Daily predictions for brighter satellites

Satellite Brightness Start Highest point End
(mag) Time Altitude Azimuth Time Altitude Azimuth Time Altitude Azimuth
Cosmos 1464 Rocket 4.3 00:08:47 56° E 00:08:47 56° E 00:14:46 10° NNE
Cosmos 2333 4.3 00:04:50 10° NNW 00:10:14 74° NNE 00:10:14 74° NNE
Lacrosse 4 Rocket 3.2 00:13:02 30° NNE 00:13:02 30° NNE 00:15:14 10° NNE
Cosmos 2233 Rocket 4.3 00:10:46 55° W 00:11:01 56° WNW 00:17:15 10° N
Cosmos 2219 Rocket 2.6 00:05:33 10° NNW 00:11:10 56° ENE 00:11:13 56° ENE
Cosmos 968 Rocket 3.9 00:19:13 57° NNE 00:19:13 57° NNE 00:23:17 10° NNE
Cosmos 2322 Rocket 3.8 00:14:26 10° NW 00:17:43 24° W 00:17:43 24° W
COSMOS 2428 2.9 00:23:35 10° NNW 00:29:11 69° NE 00:29:11 69° NE
SL-16 R/B 4.1 00:28:37 20° ESE 00:31:32 29° ENE 00:36:48 10° N
CENTAUR R/B 4.3 00:27:24 12° W 00:32:21 29° NNW 00:38:36 10° NNE
Nadezhda 4 Rocket 4.2 00:28:34 10° N 00:34:49 61° E 00:35:18 59° E
Cosmos 2360 Rocket 3.4 00:29:46 10° NW 00:33:24 31° WNW 00:33:24 31° WNW
Cosmos 2034 Rocket 4.1 00:35:41 65° E 00:35:48 65° E 00:42:02 10° NNE
Cosmos 1513 Rocket 4.4 00:37:32 85° WSW 00:37:39 86° W 00:44:07 10° N
CZ-2D R/B 3.8 00:33:41 10° NE 00:37:56 22° E 00:38:05 22° E
Cosmos 1072 Rocket 4.4 00:39:08 79° WNW 00:39:08 79° WNW 00:45:12 10° N
Okean 2 Rocket 4.4 00:41:46 36° NE 00:41:46 36° NE 00:44:50 10° NNE
Meteor 2-9 Rocket 4.3 00:41:29 73° NNW 00:41:29 73° NNW 00:46:39 10° N
GEOS 3 Rocket 4.0 00:38:14 10° NE 00:42:46 56° E 00:42:46 56° E
Cosmos 2297 Rocket 3.5 00:45:36 28° E 00:45:36 28° E 00:49:57 10° NE
Cosmos 2219 4.3 00:45:50 33° E 00:45:50 33° E 00:50:18 10° NE
Cosmos 1891 Rocket 4.5 00:46:46 72° W 00:47:01 73° W 00:53:30 10° N
Cosmos 1975 Rocket 4.3 00:42:41 10° NNW 00:45:36 39° NNW 00:45:36 39° NNW
Cosmos 2333 Rocket 2.5 00:43:19 10° NNW 00:48:12 60° WNW 00:48:12 60° WNW
Helios 1B rocket 3.8 00:46:18 10° NNE 00:48:49 37° N 00:48:49 37° N
Cosmos 44 Rocket 3.8 00:50:37 10° NNW 00:55:08 61° NNE 00:55:08 61° NNE
Cosmos 1503 Rocket 4.4 00:56:39 60° NW 00:56:39 60° NW 01:01:36 10° NNE
Cosmos 2237 Rocket 3.0 00:52:53 10° NNW 00:58:21 46° ENE 00:59:51 38° E
Cosmos 2151 Rocket 4.3 01:12:29 50° NNE 01:12:29 50° NNE 01:15:53 10° NNE
Meteor 1-12 Rocket 4.2 01:11:28 83° SSE 01:11:40 86° E 01:17:43 10° N
Timation 2 Rocket 3.7 01:14:34 80° S 01:14:56 87° ESE 01:21:02 10° NNE
Cosmos 1707 4.4 01:15:00 10° NNW 01:17:05 30° NNW 01:17:05 30° NNW
In-Cosmos 22 4.1 01:13:24 10° N 01:19:03 78° E 01:19:15 77° ESE
SJ 16-02 3.2 01:25:10 21° E 01:25:10 21° E 01:28:26 10° NE
Meteor 2-13 Rocket 4.3 01:27:12 10° N 01:33:19 89° W 01:34:11 68° S
Cosmos 2227 Rocket 2.3 01:33:34 59° SE 01:33:59 61° ESE 01:39:35 10° NNE
Cosmos 1538 Rocket 3.9 01:30:20 10° NNW 01:35:32 78° ENE 01:35:51 74° ESE
Cosmos 2195 Rocket 4.4 01:29:38 10° N 01:35:58 86° W 01:37:03 64° S
MOZ.5/SAFIR/RUBIN 5/SL-8 4.0 01:37:00 65° NW 01:37:00 65° NW 01:41:11 10° NNW
Cosmos 1025 Rocket 4.1 01:33:20 10° NNW 01:36:08 36° NW 01:36:08 36° NW
Resurs 1-4 Rocket 2.0 01:33:45 10° NNE 01:39:03 76° ESE 01:39:24 72° SE
Cosmos 1674 3.8 01:37:09 10° N 01:39:47 41° NNE 01:39:47 41° NNE
SL-19 R/B 4.4 01:36:48 10° N 01:42:42 61° WNW 01:43:22 57° W
NOSS 0 Rocket 4.0 01:38:35 10° NW 01:44:39 56° WSW 01:44:39 56° WSW
ATLAS 3B R/B 4.4 01:40:56 12° W 01:45:33 25° NNW 01:50:55 10° NNE
Cosmos 2279 Rocket 4.2 01:44:46 46° SSE 01:46:28 63° E 01:52:35 10° NNE
Cosmos 773 Rocket 4.5 01:42:11 10° NNW 01:46:17 46° WNW 01:46:17 46° WNW
Cosmos 1536 Rocket 4.5 01:45:23 10° NNW 01:48:26 39° NW 01:48:26 39° NW
Cosmos 2026 Rocket 3.8 01:43:57 10° N 01:50:02 79° W 01:51:09 61° SSW
USA 215 3.3 01:43:34 10° NE 01:50:03 62° SE 01:51:29 50° S
Lacrosse 4 Rocket 3.9 01:49:19 12° WNW 01:50:15 13° NW 01:52:17 10° NNW
Cosmos 1634 Rocket 3.9 01:50:27 60° SW 01:51:35 75° W 01:57:51 10° N
Cosmos 1627 Rocket 4.4 01:46:30 10° NNW 01:52:37 71° W 01:53:40 59° SSW
Cosmos 2082 4.1 01:53:29 44° SE 01:54:35 50° ESE 02:00:00 10° NE
Cosmos 2219 Rocket 3.9 01:50:21 10° NW 01:52:54 19° WNW 01:52:54 19° WNW
Cosmos 2344 4.4 01:46:08 10° NW 01:55:57 84° SW 02:09:45 10° SSE
IRAS Rocket 4.1 01:57:00 62° SW 01:57:23 64° WSW 02:02:56 10° NNW
SL-4 R/B 3.3 01:58:02 24° NNW 01:59:22 33° NNE 02:02:28 10° E
Cosmos 2142 Rocket 4.4 02:00:56 53° SSW 02:02:36 84° W 02:09:02 10° N
Meteor 1-24 Rocket 4.0 02:00:54 10° N 02:06:20 60° ENE 02:08:55 30° SE
SL-16 R/B 2.7 02:01:24 10° NNW 02:07:03 60° ENE 02:12:33 11° SE
CBERS-1 4.3 02:02:47 10° NNE 02:07:53 61° ESE 02:09:09 46° SSE
Meteor 2-5 Rocket 3.6 02:04:24 10° N 02:10:06 85° E 02:11:59 44° SSE
Cosmos 1898 Rocket 4.3 02:11:42 32° SSE 02:13:25 42° ESE 02:18:20 10° NNE
SL-16 R/B 2.7 02:13:42 46° SW 02:14:50 52° W 02:20:57 10° NNW
ARIANE 5 R/B 3.8 02:10:31 10° NNE 02:15:16 34° E 02:18:02 21° SSE
NPP 3.7 02:11:56 10° N 02:17:16 62° WNW 02:18:22 50° WSW
IDEFIX/ARIANE 42P 4.4 02:13:52 10° NE 02:18:02 24° E 02:21:55 11° SE
CZ-2D R/B 2.5 02:12:56 10° N 02:18:15 52° WNW 02:19:24 45° WSW
Cosmos 1680 Rocket 3.9 02:13:38 10° NNW 02:18:51 63° ENE 02:22:57 16° SE
NOSS 3-1 (C) 4.0 02:17:24 32° SSE 02:19:08 42° ESE 02:24:48 10° NE
USA 267 4.0 02:15:29 10° ESE 02:21:46 52° NNE 02:28:04 10° NW
AQUA 3.9 02:19:02 10° N 02:23:44 61° WNW 02:24:27 54° WSW
Cosmos 990 Rocket 4.3 02:23:20 39° SSE 02:25:02 59° ESE 02:30:09 10° NNE
Cosmos 1607 4.1 02:19:09 10° NNW 02:25:38 80° NE 02:32:07 10° SE
Cosmos 1766 3.6 02:26:32 50° WNW 02:26:32 50° WNW 02:30:04 10° N
ADEOS II 2.1 02:21:17 10° NNE 02:26:34 80° ESE 02:28:23 42° S
Cosmos 2263 Rocket 4.0 02:23:53 12° SSE 02:27:36 23° ESE 02:31:52 10° NE
Meteor 1-22 Rocket 4.0 02:27:11 47° SSW 02:28:47 87° W 02:34:07 10° N
Cosmos 2297 Rocket 2.8 02:27:24 36° W 02:28:59 44° WNW 02:34:25 10° NNE
Cosmos 2219 4.0 02:27:45 31° W 02:29:23 38° WNW 02:34:37 10° NNE
IRS-1D 3.4 02:25:20 10° NNE 02:30:24 81° WNW 02:31:54 47° SSW
Okean 1-7 Rocket 3.8 02:28:33 10° N 02:32:57 66° E 02:35:04 30° SSE
IRS-1C 4.3 02:30:51 10° NNE 02:36:11 70° ESE 02:38:42 32° S
TIMED 4.5 02:32:54 10° NNW 02:37:18 82° ENE 02:39:36 28° SSE
Okean 1 Rocket 4.1 02:38:14 30° WNW 02:38:19 30° WNW 02:42:10 10° NNW
Meteor 1-28 Rocket 3.9 02:36:22 25° SE 02:38:19 53° ENE 02:42:02 10° N
Cosmos 1626 2.1 02:35:21 10° NNW 02:38:56 64° W 02:38:56 64° W
Cosmos 2266 Rocket 4.0 02:33:36 10° N 02:40:01 82° E 02:45:02 17° S
Cosmos 1655 Rocket 3.9 02:34:36 10° N 02:40:52 76° W 02:44:28 27° S
Cosmos 2237 Rocket 3.2 02:37:28 10° NW 02:41:36 26° W 02:41:36 26° W
Cosmos 1470 2.9 02:41:43 45° SSE 02:42:47 71° E 02:46:45 10° NNE
CZ-4B R/B 3.6 02:39:00 10° N 02:43:38 52° WNW 02:44:50 41° WSW
SL-08 R/B 3.4 02:43:56 18° SSE 02:47:36 82° ENE 02:52:36 10° NNW
Cosmos 923 Rocket 4.1 02:43:41 10° NNW 02:48:53 55° WSW 02:51:06 32° SSW
USA 229 DEB 3.8 02:48:34 28° SSW 02:52:06 65° ESE 02:58:51 10° NE
USA 229 3.8 02:48:39 28° SSW 02:52:11 65° ESE 02:58:54 10° NE
Cosmos 2098 Rocket 3.5 02:50:08 10° N 02:54:59 78° W 02:59:34 18° S
Cosmos 158 Rocket 4.0 02:51:24 10° NNW 02:56:43 62° WSW 03:00:32 19° S
OPS 8737 4.3 02:56:59 53° SW 02:57:44 85° NW 03:00:51 10° NE
NOSS 2-3 (C) 4.4 03:01:07 25° S 03:03:12 45° ESE 03:07:45 10° NE
NOSS 3-1 (A) 3.7 03:00:07 23° S 03:03:20 53° ESE 03:09:19 10° NE
ERBS 2.2 03:00:08 10° NW 03:03:33 56° SSW 03:06:36 10° SSE
SJ 16-02 2.1 03:02:10 31° W 03:03:26 37° WNW 03:07:33 10° N
SL-14 R/B 3.8 02:59:54 10° NNW 03:03:31 36° W 03:03:48 35° WSW
SL-23 DEB 4.3 03:02:58 10° WNW 03:09:17 55° SW 03:13:04 10° SE
Cosmos 858 Rocket 4.5 03:07:27 26° SSW 03:10:28 84° WNW 03:15:48 10° NNE
Cosmos 1455 Rocket 3.5 03:11:32 31° SW 03:13:07 44° WNW 03:17:23 10° N
Cosmos 1943 4.2 03:08:21 10° NNW 03:13:48 48° ENE 03:19:12 10° SE
Cosmos 1809 Rocket 4.4 03:07:57 10° N 03:14:04 87° W 03:20:12 10° S
MSX 4.4 03:08:39 10° NNE 03:14:19 55° E 03:19:56 10° S
IRS-P3 4.4 03:09:48 10° N 03:14:59 51° WNW 03:17:56 24° SW
Cosmos 1758 3.4 03:13:25 32° SW 03:15:05 58° W 03:19:05 10° N
Cosmos 1626 Rocket 3.5 03:10:57 10° N 03:15:18 84° E 03:19:37 10° S
Resurs 1-4 Rocket 3.9 03:15:04 10° NNW 03:18:14 16° WNW 03:20:28 13° W
Cosmos 2227 Rocket 3.7 03:15:24 16° W 03:18:28 24° NW 03:23:00 10° N
Spot 4 Rocket 4.0 03:13:44 10° NNE 03:18:55 89° ESE 03:23:00 17° SSW
Meteor 1-21 Rocket 4.4 03:13:31 10° N 03:19:06 75° E 03:24:37 10° SSE
SeaSat 1 3.2 03:18:25 10° NE 03:23:12 48° ESE 03:27:42 11° S
Landsat 5 3.9 03:20:06 10° SSE 03:23:54 58° ENE 03:27:51 10° N
Cosmos 1461 3.7 03:23:26 24° WSW 03:25:42 44° NW 03:30:05 10° NNE
CZ-2C R/B 2.9 03:23:06 10° NNE 03:27:00 71° ESE 03:30:09 14° S
CZ-2D R/B 3.4 03:24:33 10° N 03:28:36 66° WNW 03:31:10 21° SSW
Cosmos 2227 4.3 03:24:45 17° SSW 03:29:19 82° ESE 03:35:07 10° NNE
FALCON 9 DEB 3.5 03:26:48 10° NW 03:30:16 66° NNE 03:33:42 10° ESE
ATLAS CENTAUR R/B 3.9 03:28:35 10° SSE 03:31:13 16° ESE 03:33:44 10° ENE
Cosmos 1340 Rocket 3.5 03:29:56 24° WSW 03:31:42 36° WNW 03:35:24 10° N
ATLAS 3B CENTAUR R/B 4.0 03:27:04 17° WSW 03:32:05 25° SSW 03:37:03 10° SSE
USA 215 3.9 03:26:42 10° NE 03:32:57 49° NNW 03:38:49 12° W
ERS-2 2.4 03:31:33 10° SSE 03:35:09 69° ENE 03:38:48 10° N
Cosmos 724 4.3 03:30:34 10° NW 03:36:36 88° WSW 03:42:44 10° SSE
Meteor 2-21 4.4 03:31:07 10° NNW 03:37:08 67° W 03:43:08 10° S
Cosmos 1953 2.3 03:35:03 17° SSW 03:38:01 64° W 03:42:02 10° N
SL-4 R/B 1.6 03:35:42 10° WNW 03:39:01 49° SW 03:42:19 10° SE
Cosmos 1726 2.4 03:38:38 20° SSW 03:40:58 48° W 03:44:33 10° N
Cosmos 1908 3.6 03:39:19 10° S 03:43:10 65° E 03:47:04 10° NNE
Meteor 1-16 Rocket 4.1 03:38:53 10° S 03:44:13 87° E 03:49:44 10° N
Cosmos 2285 Rocket 4.3 03:39:39 10° S 03:45:53 67° ESE 03:52:08 10° NNE
H-2A R/B 1.9 03:45:27 10° S 03:49:33 63° WSW 03:53:38 10° NNW
SL-16 R/B 3.4 03:46:33 10° NW 03:50:39 21° W 03:54:15 12° SW
Cosmos 2150 Rocket 4.2 03:45:38 10° S 03:50:44 70° ESE 03:55:56 10° NNE
Cosmos 1937 Rocket 4.2 03:47:07 16° SW 03:51:00 39° WNW 03:55:59 10° N
ARIANE 5 R/B 3.5 03:49:41 10° N 03:54:18 33° WNW 03:58:22 13° SW
Cosmos 1825 Rocket 3.9 03:51:31 10° N 03:55:51 67° E 04:00:08 10° SSE
IDEFIX/ARIANE 42P 3.0 03:52:52 10° N 03:57:48 45° WNW 04:02:43 10° SW
CZ-4C R/B 3.2 03:55:54 10° S 03:58:56 41° W 04:02:04 10° NNW
Cosmos 1328 3.8 03:56:15 10° N 04:00:16 86° E 04:04:15 10° S
NOSS 2-3 (E) 4.0 03:57:58 13° SW 04:01:37 55° NW 04:06:33 10° NNE
CZ-4B R/B 2.6 03:58:51 10° SSE 04:02:01 44° ENE 04:05:08 10° N
USA 267 3.3 03:58:20 10° SSE 04:04:44 56° SW 04:11:10 10° NW
ADEOS II 3.9 04:02:36 10° NNW 04:05:36 16° WNW 04:08:36 10° W
NOSS 3-1 (C) 4.2 04:04:48 10° WSW 04:09:59 38° NW 04:15:59 10° NNE
Cosmos 1703 3.3 04:07:08 10° NNW 04:11:03 58° W 04:14:55 10° S
Cosmos 2263 Rocket 2.5 04:05:40 10° SW 04:11:07 53° WNW 04:16:34 10° NNE
Cosmos 372 Rocket 4.3 04:08:31 10° SW 04:13:33 50° WNW 04:18:40 10° N
Cosmos 1553 Rocket 4.0 04:07:32 10° SSW 04:13:34 69° W 04:19:39 10° N
SAR-Lupe-4 3.7 04:13:38 10° SSE 04:17:12 79° ENE 04:20:48 10° N
Cosmos 482 Debris 4.3 04:15:52 10° WNW 04:21:19 70° SW 04:24:32 10° SE
Cosmos 1606 Rocket 3.6 04:17:44 10° SSW 04:22:11 70° W 04:26:40 10° N
Aureole 3 4.2 04:17:44 10° SSW 04:22:42 78° W 04:29:06 10° N
SL-08 ROCKET BODY 4.4 04:18:18 10° NNW 04:24:24 74° W 04:30:20 10° S
Cosmos 1300 3.2 04:20:43 10° S 04:24:28 63° E 04:28:16 10° NNE
Cosmos 1745 Rocket 4.0 04:18:10 10° N 04:24:29 78° W 04:30:41 10° S
CZ-2C R/B 2.3 04:20:11 10° N 04:24:45 72° WNW 04:29:20 10° SSW
Cosmos 1125 Rocket 3.6 04:21:25 10° SSW 04:26:39 88° WNW 04:31:57 10° NNE
